Location: Oberkirch
(48.5323°N, 8.0787°E)
Time: 17:05:35
(UTC+00:00)

SL-24 R/B - RUBIN 2 - Pass Details

Date: 13 February 2026
Orbit: 603 x 984 km, 64.6° (Epoch: 8 March)

Event Time Altitude Azimuth Distance (km) Brightness Sun altitude
Exits shadow 05:30:39 11° 314° (NW) 2,009 5.7 -11.8°
Maximum altitude 05:32:41 13° 341° (NNW) 1,799 5.7 -11.5°
Drops below altitude 10° 05:34:54 10° 11° (N) 1,992 6.2 -11.1°
Sets 05:38:17 0° 39° (NE) 2,871 7.4 -10.5°
